This is the latest recevied weather packets stored in our database for station/object KC0RPY. If no packets are shown the sender has not sent any weather packets the latest 10 day(s).
| Time | Temp. | Humidity | Pressure | Rain* | Wind** | Luminosity | Snow |
|---|---|---|---|---|---|---|---|
| 1778010601 | 7.22° C | 97% | 1012.8 hPa | 0 mm | - | 221 W/m² | - |
| 1778010299 | 7.22° C | 97% | 1013.2 hPa | 0 mm | - | 179 W/m² | - |
| 1778009999 | 7.22° C | 97% | 1012.8 hPa | 0 mm | - | 163 W/m² | - |
| 1778009696 | 7.22° C | 97% | 1012.8 hPa | 0 mm | - | 140 W/m² | - |
| 1778009394 | 7.22° C | 97% | 1012.5 hPa | 0 mm | - | 137 W/m² | - |
| 1778009092 | 7.22° C | 97% | 1012.5 hPa | 0 mm | - | 161 W/m² | - |
| 1778008789 | 7.22° C | 97% | 1012.8 hPa | 1.78 mm | - | 185 W/m² | - |
| 1778008488 | 7.78° C | 97% | 1012.8 hPa | 1.78 mm | - | 139 W/m² | - |
| 1778008184 | 7.78° C | 97% | 1012.8 hPa | 0 mm | - | 180 W/m² | - |
| 1778007879 | 7.78° C | 97% | 1012.8 hPa | 0 mm | - | 223 W/m² | - |
| 1778007575 | 7.22° C | 97% | 1012.8 hPa | 0 mm | - | 191 W/m² | - |
| 1778007273 | 7.22° C | 97% | 1012.8 hPa | 0 mm | - | 119 W/m² | - |
| 1778006969 | 7.22° C | 97% | 1012.8 hPa | 0 mm | - | 95 W/m² | - |
| 1778006666 | 7.22° C | 97% | 1012.8 hPa | 0 mm | - | 78 W/m² | - |
| 1778006362 | 7.22° C | 97% | 1013.2 hPa | 0 mm | - | 78 W/m² | - |
| 1778006059 | 7.22° C | 97% | 1013.2 hPa | 0 mm | - | 112 W/m² | - |
| 1778005756 | 7.22° C | 97% | 1013.2 hPa | 0 mm | - | 101 W/m² | - |
| 1778005453 | 7.22° C | 97% | 1013.5 hPa | 0 mm | - | 104 W/m² | - |
| 1778005149 | 7.22° C | 97% | 1013.2 hPa | 0 mm | - | 141 W/m² | - |
| 1778004847 | 7.22° C | 97% | 1013.5 hPa | 0 mm | - | 151 W/m² | - |
| 1778004543 | 6.67° C | 97% | 1013.9 hPa | 0 mm | - | 147 W/m² | - |
| 1778004240 | 7.22° C | 97% | 1013.9 hPa | 0 mm | - | 109 W/m² | - |
| 1778003936 | 7.22° C | 97% | 1013.9 hPa | 0 mm | - | 90 W/m² | - |
| 1778003633 | 7.22° C | 97% | 1013.5 hPa | 0 mm | - | 116 W/m² | - |
| 1778003329 | 7.22° C | 98% | 1013.9 hPa | 0 mm | - | 83 W/m² | - |
* Rain latest hour (hover to see other rain measurements)
** Current wind speed in m/s (hover to see current wind gust speed)